Regional Weather Roundup
Issued by NWS

Home | Current Version | Previous Version | Graphics & Text | Print | Product List | Glossary Off
Versions: 1 2 3 4 5 6 7 8 9 10 11 12 13 14 15 16 17 18 19 20 21 22 23 24 25 26 27 28 29 30 31 32 33 34 35 36 37 38 39 40 41 42 43 44 45 46 47 48 49 50

000
ASUS44 KLUB 031101
RWRTX
WEST TEXAS WEATHER ROUNDUP
NATIONAL WEATHER SERVICE LUBBOCK TX
600 AM CDT FRI JUL 03 2015

NOTE: "FAIR" INDICATES FEW OR NO CLOUDS BELOW 12,000 FEET WITH NO
SIGNIFICANT WEATHER AND/OR OBSTRUCTIONS TO VISIBILITY.

TXZ004-006>008-010-012-014-016-OKZ002-031200-
TEXAS PANHANDLE/OKLAHOMA PANHANDLE

CITY           SKY/WX    TMP DP  RH WIND       PRES   REMARKS
AMARILLO       CLOUDY    67  63  87 W6        30.07R
BORGER         MOCLDY    67  65  93 CALM      30.04R
CANADIAN         N/A     66  66  98 CALM      30.00R
DALHART        MOCLDY    64  60  87 W7        30.12R
DUMAS          MOCLDY    62  60  93 NW6       30.08R
GUYMON         PTCLDY    63  60  90 NW6       30.03S
$$

TXZ026-029-035-045-048-031200-
SOUTHERN PANHANDLE/SOUTH PLAINS/ROLLING PLAINS

CITY           SKY/WX    TMP DP  RH WIND       PRES   REMARKS
CHILDRESS      CLOUDY    70  66  87 NW7       29.97R
LUBBOCK        CLOUDY    69  63  81 SW5       30.04R
$$

TXZ052-054-060>062-072-078-127-140-154-169-031200-
PERMIAN BASIN/CONCHO VALLEY/BIG COUNTRY/EDWARDS PLATEAU

CITY           SKY/WX    TMP DP  RH WIND       PRES   REMARKS
ABILENE        MOCLDY    74  66  76 S10       30.00R
JUNCTION       CLEAR     73  67  81 S3        29.99R
MIDLAND        MOCLDY    71  66  84 SE6       30.00F
ODESSA         MOCLDY    71  65  81 S7        30.02S
SAN ANGELO     MOCLDY    72  67  84 S7        29.99S
WINK           CLOUDY    74  64  71 E9        29.98S
$$

TXZ055-058-074-075-080-082-031200-
FAR WEST/SOUTHWEST MOUNTAINS/TRANS PECOS

CITY           SKY/WX    TMP DP  RH WIND       PRES   REMARKS
ALPINE         CLEAR     64  59  85 SW8       30.11F
DRYDEN           N/A     73  67  81 VRB6      29.95S
EL PASO        CLOUDY    79  58  48 N12       30.06R
FORT STOCKTON  PTCLDY    70  65  84 SE10      29.98S
GUADALUPE PASS CLOUDY    70  58  65 CALM      30.16R
MARFA          CLEAR    N/A N/A N/A NE7       30.10S
$$

TXZ014-016-019-021>030-083-031200
TEXAS TECH WEST TEXAS MESONET/TEXAS PANHANDLE/NORTHERN SOUTH PLAINS

CITY           SKY/WX    TMP DP  RH WIND       PRES   REMARKS
ABERNATHY 5ENE   N/A     69  64  83 W7        30.05R
AMARILLO 9NNE    N/A     64  64  99 N2        30.06R
AMARILLO 7SSE    N/A     66  65  94 SW3       30.07R
AMHERST 1NE    LGT RAIN  69  65  89 NW12      30.08F
BOOTLEG 11WNW  LGT RAIN  64  62  92 N13       30.17R
CANADIAN 6E      N/A     65  64  98 N5        29.99R
CAPROCK CYN SP   N/A     66  65  95 W2        30.02S
CHILDRESS 2NNE   N/A     68  65  89 W7        29.96S
CLARENDON 2WSW   N/A     65  62  89 E2        30.02R
CLAUDE 12SW      N/A     66  61  83 N2        30.06R
DIMMITT 2NE      N/A     68  58  69 S10       30.08R
FLOYDADA 2NNE    N/A     69  63  80 SW6       30.03S
FRIONA 2NE       N/A     68  62  79 S8        30.11R
GOODLETT 3W      N/A     71  65  82 W5        29.94R
HART 3N          N/A     64  60  87 W6        30.06R
HEREFORD 2NW     N/A     68  57  68 SW2       30.09R
MCLEAN 1E        N/A     66  64  96 NW7       30.01R
MEMPHIS 1NE      N/A     69  66  92 NW6       29.98S
MULESHOE 2SSW  RAIN      67  64  91 NE5       30.10R
OLTON 6S         N/A     68  64  86 W7        30.05F
PALO DURO SP     N/A     67  62  85 NW1       30.07R
PAMPA 2E         N/A     62  62  97 N2        30.04R
PLAINVIEW 1S     N/A     71  65  81 W6        30.03S
SILVERTON 7ESE   N/A     66  64  91 CALM      30.04R
TULIA 2ENE       N/A     66  62  85 W6        30.05R
TURKEY 2WSW      N/A     68  64  86 NW6       30.00S
UMBARGER 3NNE    N/A     66  62  86 W6        30.09R
$$

TXZ033>036-039>041-045>048-031200
TEXAS TECH WEST TEXAS MESONET/SOUTH PLAINS

CITY           SKY/WX    TMP DP  RH WIND       PRES   REMARKS
AIKEN 3WSW       N/A     70  64  82 W6        30.05S
ANDREWS 2NE      N/A     69  62  79 SE2       30.03S
ANTON 6SSW       N/A     70  63  80 W2        30.05R
BROWNFIELD 2S    N/A     67  62  82 SW3       30.04R
DENVR CTY 7WNW   N/A     66  60  79 S5        30.05S
GAIL 2ESE        N/A     70  66  86 SW1       30.01R
LAMESA 2SE       N/A     69  64  82 W1        30.03R
LEVELLAND 4S     N/A     67  62  83 W2        30.05R
LUBBOCK 3WNW     N/A     69  62  76 W1        30.04R
MORTON 1ENE      N/A     68  64  85 SW3       30.06S
ODONNELL 1N      N/A     68  62  82 S2        30.03R
PLAINS 3N        N/A     68  61  77 S2        30.06R
RALLS 1SE        N/A     69  63  82 W5        30.04R
REESE CENTER     N/A     68  62  82 W5        30.05R
SEAGRAVES 1SW    N/A     68  62  82 S1        30.04S
SEMINOLE 2NNE    N/A     68  61  78 CALM      30.03S
SLATON 2NE       N/A     69  62  77 SW7       30.03R
SNYDER 3E        N/A     73  66  81 S9        30.00R
SUNDOWN 8SW      N/A     66  62  87 SW6       30.05S
TAHOKA 3NNE      N/A     68  62  82 W2        30.03R
WOLFFORTH 6SSW   N/A     69  63  79 SW5       30.05R
$$

TXZ031-032-036>038-042>044-031200-
TEXAS TECH WEST TEXAS MESONET/ROLLING PLAINS

CITY           SKY/WX    TMP DP  RH WIND       PRES   REMARKS
ASPERMONT 3NE    N/A     73  66  78 S3        29.98R
FLUVANNA 3WNW    N/A     71  64  76 S7        30.02R
GRAHAM 5SSW      N/A     71  62  73 S1        30.02R
GUTHRIE 10WSW    N/A     73  64  74 SE6       29.98R
HASKELL 1NW      N/A     76  66  70 S10       29.95S
JAYTON 1SSE      N/A     72  65  81 E2        29.99R
KNOX CITY 3NW    N/A     76  64  67 S8        29.95R
LK A HENRY 1NW   N/A     73  64  73 SW5       29.99R
NORTHFIELD 1S    N/A     69  68  97 W2        29.98S
ODELL 4ENE       N/A     71  69  92 W3        29.94R
PADUCAH 10SW     N/A     73  65  76 W3        29.97R
POST 1NE         N/A     72  63  72 SW5       30.01R
RRING SPRGS 3N   N/A     67  63  86 N5        30.01S
SEYMOUR 3NW      N/A     78  66  68 S8        29.94R
SPUR 1W          N/A     70  64  83 CALM      29.98S
WEINERT 2NNE     N/A     76  68  77 SW8       29.96R
WHITE RVR 6NE    N/A     69  63  80 W5        30.01R
$$

TXZ052-054-060>062-072-078-127-140-154-169-031200-
TEXAS TECH WEST TEXAS MESONET/PERMIAN BASIN/
CONCHO VALLEY/BIG COUNTRY/EDWARDS PLATEAU

CITY           SKY/WX    TMP DP  RH WIND       PRES   REMARKS
COYANOSA 2N      N/A     70  64  81 E7        29.97S
JUNCTION 1SSW    N/A     72  68  86 S7        29.99S
MERTZON 3NNE     N/A     70  66  89 S6        30.01S
SAN ANGELO 7NW   N/A     71  65  82 S3        29.99S
STRLNG CT 4WSW   N/A     71  66  84 SE6       30.01S
ST LAWRNCE 5SW   N/A     70  66  87 SE7       30.01S
SWEETWATR 11SW   N/A     72  67  85 S12       30.02R
WALL 1E          N/A     72  65  80 S7        29.99F
$$

TXZ055-058-074-075-080-082-031200-
TEXAS TECH WEST TEXAS MESONET/FAR WEST/SOUTHWEST MOUNTAINS/TRANS PECOS

CITY           SKY/WX    TMP DP  RH WIND       PRES   REMARKS
PRSMN GAP BBNP   N/A     73  63  70 NE9       29.97S
$$



USA.gov is the U.S. government's official web portal to all federal, state and local government web resources and services.